Weather in Sokolniki

Russia / Kaliningrad Oblast     54°39′43″N   20°55′53″E
temp.,
°C
wind,
m/s
gust,
m/s
humid.,
%
clouds,
%
prec.,
mm/h
press.,
hPa
HPBL,
m
17 may, mon
mon1723:00+12s3594100 0.5 1002128
02:00+11s3797100 2.1 1003197
05:00+9ssw3695100 0.0 1004132
08:00+13ssw34840 0.0 1004339
11:00+17ssw23630 0.0 10051131
14:00+19s225513 0.0 10051657
17:00+18e125730 0.0 10051166
20:00+13nne347953 0.0 100469
18 may, tue
tue1823:00+10ene34865 0.0 100453
02:00+10e2281100 0.0 100533
05:00+10nne2287100 0.0 100428
08:00+14nne1180100 0.0 1005284
11:00+18w1166100 0.0 1005822
14:00+18nw327376 1.1 1005857
17:00+15nw568264 1.3 1005533
20:00+10nw4891100 1.4 1006265
19 may, wed
wed1923:00+10wnw41084100 0.0 1007313
02:00+10nw51187100 0.0 1007458
05:00+10wnw4990100 0.1 1008471
08:00+9wnw4797100 3.6 1009362
11:00+12nw3486100 1.5 1010495
14:00+15wnw3471100 1.8 10101038
17:00+14nw567521 0.6 1011768
20:00+10nw35925 0.6 1012165
20 may, thu
thu2023:00+7wnw369768 0.0 1013137
02:00+6wnw3795100 0.0 1013125
05:00+6wnw3493100 0.0 101376
08:00+11wnw3479100 0.0 1013361
11:00+15nw5664100 0.0 1013727
14:00+13nw81268100 0.0 1013830
17:00+12nw71275100 0.0 1013764
20:00+9wnw61379100 0.0 1014616
21 may, fri
fri2123:00+8w61481100 0.0 1013548
02:00+8wnw71580100 0.0 1012596
05:00+7w6138564 0.0 1012691
08:00+9w711715 0.0 10121375
11:00+11w8106062 0.1 10131812
14:00+10wnw795992 0.1 10131675
17:00+10w696474 0.1 10131429
20:00+7w47794 0.1 1012284